Location: Asheville, NC
(35.6000°N, 82.5500°W)
Time: 22:52:26
(UTC-04:00)

Vanguard 1 Rocket - Pass Details

Date: 15 February 2018
Orbit: 652 x 4225 km, 34.3° (Epoch: 20 May)

Event Time Altitude Azimuth Distance (km) Brightness Sun altitude
Rises 06:43:38 0° 288° (WNW) 8,324 - -7.4°
Exits shadow 06:48:02 - 286° (WNW) 7,446 11.3 -6.6°
Reaches altitude 10° 06:50:07 10° 284° (WNW) 7,016 11.2 -6.1°
Maximum altitude 07:10:02 48° 219° (SW) 3,223 10.0 -2.2°
Drops below altitude 10° 07:21:02 10° 148° (SSE) 4,039 11.5 0.0°
Sets 07:23:42 0° 142° (SE) 4,677 12.0 0.5°
